Date,TemperatureHighF,TemperatureAvgF,TemperatureLowF,DewpointHighF,DewpointAvgF,DewpointLowF,HumidityHigh,HumidityAvg,HumidityLow,PressureMaxIn,PressureMinIn,WindSpeedMaxMPH,WindSpeedAvgMPH,GustSpeedMaxMPH,PrecipitationSumIn
2013-2-1,46,43,41,42,41,40,98,92,84,29.83,29.54,19,8,29,0.29
2013-2-2,43,41,39,40,37,33,92,84,75,30.29,29.74,19,9,26,0.02
2013-2-3,48,45,40,48,42,-100,100,94,79,30.30,30.03,16,-3,22,0.15
2013-2-4,48,46,42,48,43,39,99,89,77,30.11,29.84,24,13,29,0.05
2013-2-5,46,42,37,42,38,33,93,86,79,29.84,29.57,24,17,34,0.23
2013-2-6,44,42,39,40,37,34,92,83,73,30.21,29.65,27,14,34,0.04
2013-2-7,45,42,37,44,38,34,97,86,76,30.22,29.92,22,9,31,0.23
2013-2-8,44,43,38,43,40,37,96,89,79,30.24,30.10,17,9,26,0.02
2013-2-9,48,46,43,47,44,42,98,96,93,30.21,29.76,10,5,14,0.01
2013-2-10,47,44,41,47,42,36,98,94,80,29.77,29.24,16,10,24,0.43
2013-2-11,46,40,36,43,38,34,96,91,83,29.76,29.27,8,3,12,0.05
2013-2-12,42,38,35,38,36,34,100,92,83,30.02,29.76,15,5,20,0.01
2013-2-13,49,42,38,49,41,35,98,95,91,30.02,29.91,24,16,35,0.15
2013-2-14,50,47,44,49,45,43,100,96,91,30.05,29.77,18,8,22,0.31
2013-2-15,48,44,40,45,42,36,97,92,85,30.17,30.05,10,3,11,0.00
2013-2-16,51,44,40,45,40,36,95,89,77,30.16,30.07,12,7,14,0.00
2013-2-17,47,42,38,42,39,36,97,88,73,30.07,29.81,26,12,38,0.00
2013-2-18,49,42,38,41,38,35,93,85,69,30.00,29.82,25,18,33,0.00
2013-2-19,50,41,36,43,38,34,95,88,72,30.02,29.96,17,8,20,0.00
2013-2-20,46,40,35,42,37,33,97,89,79,30.04,29.97,24,10,30,0.01
2013-2-21,41,36,31,34,30,25,88,81,71,30.07,29.96,24,15,33,0.00
2013-2-22,35,31,27,26,24,22,83,75,68,30.11,30.01,14,8,19,0.00
2013-2-23,38,33,30,31,27,23,84,78,67,30.23,30.10,10,5,13,0.00
2013-2-24,39,35,32,32,28,27,87,78,65,30.34,30.22,12,6,17,0.00
2013-2-25,40,38,32,37,33,27,88,83,74,30.41,30.32,13,8,17,0.00
2013-2-26,42,39,37,39,36,35,92,89,86,30.52,30.36,15,8,20,0.00
2013-2-27,39,37,30,37,35,29,94,92,89,30.54,30.43,12,6,16,0.00
2013-2-28,42,37,30,34,31,28,96,81,68,30.43,30.32,10,5,15,0.00